Location: Bronnegerveen
(52.9548°N, 6.8388°E)
Time: 02:26:59
(UTC+00:00)

Nimbus 7 Rocket - Pass Details

Date: 15 June 2025
Orbit: 921 x 964 km, 99.4° (Epoch: 06 July)

Event Time Altitude Azimuth Distance (km) Brightness Sun altitude
Rises 00:54:48 0° 16° (NNE) 3,588 9.7 -11.7°
Reaches altitude 10° 00:57:14 10° 18° (NNE) 2,645 8.4 -11.6°
Maximum altitude 01:03:10 85° 107° (ESE) 946 4.5 -11.3°
Enters shadow 01:08:22 14° 196° (SSW) 2,372 5.9 -11.0°
